User: anonymous   Login
Location: Azul
(36.7830°S, 59.8500°W)
Time: 20:58:14
(UTC-03:00)
Language:

DX 1 - Orbit

View from above orbital plane
View from above orbital plane
View from above satellite
View from above satellite

Ground track
Ground track

The orbit data is extracted from the following two-line orbital elements,

1 40071U 14037C   22269.48197919  .00000681  00000-0  93152-4 0  9995
2 40071  98.3934 143.1724 0008485   1.8106 358.3139 14.81995948444308
Epoch (UTC): 26 September 2022 11:34:03
Eccentricity: 0.0008485
inclination: 98.3934°
perigee height: 617 km
apogee height: 629 km
right ascension of ascending node: 143.1724°
argument of perigee: 1.8106°
revolutions per day: 14.81995948
mean anomaly at epoch: 358.3139°
orbit number at epoch: 44430

The dashed part of the orbit path shows where the satellite is in the earth's shadow,  

DLR